COSMOS 1275 DEB

Satellite information

Favourite Embed

Satellite Type and Status

DEBRISIN ORBIT

Key statistics

Satellite COSMOS 1275 DEB at a glance.

Uptime

16159

Days in orbit

Revolutions

≈ 13.8

Per day

Orbit

LEO

Low Earth Orbit

Inclination

83.0

Latest

Satellite identification and parameters

Extended collection of information and parameters for COSMOS 1275 DEB.

Object identification

Identified? True

Debris? True

Object name: COSMOS 1275 DEB

International designator: 1981-053RF

Object number (NORAD): 42143

Object ID (CCSDS): 42143

Country: COMMONWEALTH OF INDEPENDENT STATES (CIS)

Current information (Y/N): Y

RCS size: SMALL

Orbital parameters

Period: 104.327 minutes

Inclination: 83.0133 deg

SMA: 7341.042 km

Apoapsis: 1034.309 km

Periapsis: 891.505 km

RAAN: 50.4045 deg

Eccentricy: 0.00972643

Argument of periapsis: 140.3325 deg

Mean anomaly: 220.5003 deg

Mean motion: 13.80276859 rev/day

Mean motion (dot): 0.00001114 rev/day2

B* drag term: 0.0010158243 1/REarth

Two-line elements (TLE)

Creation date: Aug. 22, 2025, 9:09 p.m.

Reference frame: TEME

Reference center: EARTH

Epoch: Aug. 22, 2025, 5:14 a.m. UTC

TLE line 0: 0 COSMOS 1275 DEB

TLE line 1: 1 42143U 81053RF 25234.21822116 .00001114 00000-0 10158-2 0 9994

TLE line 2: 2 42143 83.0133 50.4045 0097264 140.3325 220.5003 13.80276859589630

Live tracking on map

Real-time ground track for satellite COSMOS 1275 DEB.

In-orbit conjunctions

A list of the most updated potential collisions computed for object COSMOS 1275 DEB.

Target Orbit TCA Probability of collision Miss distance Type
CZ-6A DEB SSO 2025-02-24 08:03:37 0.0001238595 112.0 (m) DEBRIS
COSMOS 469 LEO 2024-11-03 16:49:18 0.000272158 157.0 (m) PAYLOAD

Associated space launch

Navigation satellite providing location information for the Tsiklon-B navigation system

COSMOS 1275 DEB was lifted into orbit during the mission ‘Kosmos-3M | Parus 27’, on board a Kosmos-3M space rocket.

The launch took place on June 4, 1981, 3:41 p.m. from 132/2.

For more information about the launch, click the button.

Launch to space Kosmos-3M | Parus 27
Kosmos-3M | Parus 27

Agency: N/A

Status: Launch Successful

Launch date: June 4, 1981, 3:41 p.m. UTC

Rocket: Kosmos-3M

Launch pad: 132/2

Location: Plesetsk Cosmodrome, Russian Federation

...

Latest news about this satellite

There are no fresh news available about this satellite. Check back as we update our databases every day.


Newsletter sign-up

Weekly statistics, charts and insights to help you stay on top of the space industry.